This is the latest recevied weather packets stored in our database for station/object SR9WXP. If no packets are shown the sender has not sent any weather packets the latest 1 day(s).
| Time | Temp. | Humidity | Pressure | Rain* | Wind** | Luminosity | Snow |
|---|---|---|---|---|---|---|---|
| 1778069508 | 16.11° C | 62% | 850.7 hPa | - | - | - | - |
| 1778069327 | 16.67° C | 61% | 850.7 hPa | - | - | - | - |
| 1778069267 | 16.67° C | 61% | 850.7 hPa | - | - | - | - |
| 1778069024 | 16.67° C | 61% | 850.5 hPa | - | - | - | - |
| 1778068785 | 16.11° C | 62% | 850.6 hPa | - | - | - | - |
| 1778068711 | 15.56° C | 62% | 850.6 hPa | - | - | - | - |
| 1778068652 | 15.56° C | 62% | 850.6 hPa | - | - | - | - |
| 1778068532 | 15° C | 63% | 850.6 hPa | - | - | - | - |
| 1778068408 | 14.44° C | 63% | 850.7 hPa | - | - | - | - |
| 1778068290 | 14.44° C | 63% | 850.8 hPa | - | - | - | - |
| 1778068108 | 14.44° C | 63% | 850.9 hPa | - | - | - | - |
| 1778068050 | 14.44° C | 63% | 850.8 hPa | - | - | - | - |
| 1778067930 | 14.44° C | 63% | 850.8 hPa | - | - | - | - |
| 1778067805 | 14.44° C | 63% | 850.7 hPa | - | - | - | - |
| 1778067566 | 13.89° C | 63% | 850.7 hPa | - | - | - | - |
| 1778066901 | 14.44° C | 63% | 850.8 hPa | - | - | - | - |
| 1778066359 | 15° C | 62% | 850.8 hPa | - | - | - | - |
| 1778066298 | 15° C | 62% | 850.8 hPa | - | - | - | - |
| 1778065875 | 16.11° C | 62% | 850.6 hPa | - | - | - | - |
| 1778065756 | 16.11° C | 62% | 850.6 hPa | - | - | - | - |
| 1778065635 | 16.11° C | 62% | 850.6 hPa | - | - | - | - |
| 1778065515 | 16.11° C | 62% | 850.6 hPa | - | - | - | - |
| 1778065270 | 16.11° C | 62% | 850.5 hPa | - | - | - | - |
| 1778064786 | 15° C | 62% | 850.6 hPa | - | - | - | - |
| 1778063823 | 14.44° C | 62% | 850.6 hPa | - | - | - | - |
* Rain since midnight (hover to see other rain measurements)
** Current wind speed in m/s (hover to see current wind gust speed)